FW6403 Weather Reports


Display with metric or nautical units.
time (UTC)temp
F
wind
direction
speed
MPH
gust
MPH
rain 1hr
in
rain 24hr
in
rain mn
in
humidity
%
barometer
mb
20260507043059 50 0 0.0 0.0 0.00 0.00 0.00 82 1012.0
20260507041556 51 0 0.0 0.0 0.00 0.00 0.00 81 1011.9
20260507040058 51 0 0.0 0.0 0.00 0.00 0.00 80 1011.8
20260507034555 52 0 0.0 0.0 0.00 0.00 0.00 79 1011.7
20260507033057 52 0 0.0 0.0 0.00 0.00 0.00 79 1011.6
20260507031555 52 0 0.0 0.0 0.00 0.00 0.00 78 1011.5
20260507030056 52 0 0.0 0.0 0.00 0.00 0.00 79 1011.6
20260507024555 52 0 0.0 0.0 0.00 0.00 0.00 78 1011.5
20260507023055 52 0 0.0 0.0 0.00 0.00 0.00 79 1011.7
20260507021556 52 0 0.0 0.0 0.00 0.00 0.00 78 1011.7
20260507020118 53 0 0.0 0.0 0.00 0.00 0.00 79 1011.7
20260507014601 53 0 0.0 0.0 0.00 0.00 0.00 78 1011.7
20260507013057 53 0 0.0 2.0 0.00 0.00 0.00 78 1011.6
20260507011557 53 0 0.0 0.0 0.00 0.00 0.00 78 1011.6
20260507010110 53 0 0.0 0.0 0.00 0.00 0.00 77 1011.5
20260507004557 54 0 0.0 0.0 0.00 0.00 0.00 77 1011.3
20260507003054 54 0 0.0 0.0 0.00 0.00 0.00 76 1011.2
20260507001605 54 0 0.0 0.0 0.00 0.00 0.00 76 1011.2
20260507000059 54 360 0.0 1.0 0.00 0.00 0.00 76 1011.3
20260506234600 55 0 0.0 0.0 0.00 0.00 0.00 75 1011.1
20260506233100 55 0 0.0 0.0 0.00 0.00 0.00 74 1011.2
20260506231610 56 0 0.0 0.0 0.00 0.00 0.00 74 1011.1
20260506230126 56 0 0.0 0.0 0.00 0.00 0.00 72 1011.2
20260506224603 57 0 0.0 1.0 0.00 0.00 0.00 71 1011.2
20260506223103 57 0 0.0 0.0 0.00 0.00 0.00 70 1011.0
20260506221631 58 0 0.0 0.0 0.00 0.00 0.00 70 1011.1
20260506220124 58 0 0.0 3.0 0.00 0.00 0.00 70 1011.2
20260506214600 58 0 0.0 2.0 0.00 0.00 0.00 70 1011.3
20260506213110 58 0 0.0 2.0 0.00 0.00 0.00 70 1011.1
20260506211600 59 360 0.0 0.0 0.00 0.00 0.00 70 1011.2
20260506210106 59 0 0.0 0.0 0.00 0.00 0.00 68 1011.1
20260506204607 60 360 0.0 2.0 0.00 0.00 0.00 68 1011.1
20260506203058 61 0 0.0 2.0 0.00 0.00 0.00 66 1010.8
20260506201558 61 0 0.0 2.0 0.00 0.00 0.00 63 1010.8
20260506200057 63 0 0.0 3.0 0.00 0.00 0.00 62 1010.5
20260506194559 64 277 1.0 4.0 0.00 0.00 0.00 55 1010.1
20260506193104 64 0 1.0 8.0 0.00 0.00 0.00 54 1009.8
20260506191619 64 178 1.0 5.0 0.00 0.00 0.00 55 1009.4
20260506190058 65 0 0.0 2.0 0.00 0.00 0.00 57 1009.2
20260506184627 66 0 0.0 2.0 0.00 0.00 0.00 54 1009.0
20260506183104 67 175 0.0 2.0 0.00 0.00 0.00 54 1008.8
20260506181600 68 0 0.0 3.0 0.00 0.00 0.00 52 1008.7
20260506180058 68 187 1.0 5.0 0.00 0.00 0.00 50 1008.4
20260506174557 69 207 1.0 5.0 0.00 0.00 0.00 50 1008.3
20260506173100 70 0 1.0 7.0 0.00 0.00 0.00 49 1008.2
20260506171612 70 136 2.0 7.0 0.00 0.00 0.00 49 1008.2
20260506170100 70 198 2.0 8.0 0.00 0.00 0.00 49 1008.0
20260506164555 71 169 2.0 9.0 0.00 0.01 0.00 49 1008.1
20260506163107 71 0 2.0 9.0 0.00 0.01 0.00 49 1008.0
20260506161557 71 167 2.0 8.0 0.00 0.01 0.00 49 1007.9
20260506160109 71 326 3.0 13.0 0.00 0.01 0.00 50 1007.9
20260506154558 71 217 2.0 8.0 0.00 0.01 0.00 52 1007.9
20260506153057 72 360 2.0 10.0 0.00 0.01 0.00 52 1008.0
20260506151557 73 360 2.0 10.0 0.00 0.01 0.00 55 1007.9
20260506150057 73 360 2.0 10.0 0.00 0.01 0.00 52 1007.9
20260506144603 74 360 1.0 6.0 0.00 0.02 0.00 58 1008.0
20260506143056 75 360 1.0 6.0 0.00 0.02 0.00 62 1008.0
20260506141557 74 360 1.0 4.0 0.00 0.02 0.00 62 1008.3
20260506140101 73 360 1.0 4.0 0.00 0.02 0.00 67 1008.2
20260506134556 73 360 1.0 6.0 0.00 0.03 0.00 73 1008.3
20260506133054 73 360 1.0 6.0 0.00 0.03 0.00 70 1008.4
20260506131607 72 0 0.0 5.0 0.00 0.03 0.00 72 1008.5
20260506130057 72 360 2.0 8.0 0.00 0.03 0.00 71 1008.5
20260506124556 71 89 1.0 7.0 0.00 0.03 0.00 77 1008.7
20260506123058 70 39 1.0 8.0 0.00 0.03 0.00 79 1008.8
20260506121600 69 118 2.0 7.0 0.00 0.03 0.00 83 1008.7
20260506114556 66 117 0.0 7.0 0.00 0.05 0.00 90 1008.9
20260506113104 65 114 1.0 9.0 0.00 0.05 0.00 92 1008.9
20260506111557 64 167 2.0 9.0 0.00 0.05 0.00 93 1009.1
20260506110058 63 108 2.0 8.0 0.00 0.05 0.00 93 1009.1
20260506104607 63 76 2.0 7.0 0.00 0.07 0.00 92 1009.2
20260506103056 64 88 1.0 6.0 0.00 0.07 0.00 89 1009.6
20260506101557 64 99 2.0 7.0 0.00 0.07 0.00 85 1009.8
20260506100114 65 81 2.0 7.0 0.00 0.07 0.00 83 1009.6
20260506094600 64 47 2.0 8.0 0.00 0.09 0.00 85 1009.6
20260506093104 64 120 2.0 7.0 0.00 0.09 0.00 86 1009.5
20260506091603 63 83 3.0 9.0 0.00 0.09 0.00 85 1009.6
20260506090100 63 115 3.0 8.0 0.00 0.09 0.00 85 1009.5
20260506084604 64 95 1.0 7.0 0.00 0.12 0.00 87 1009.4
20260506083110 63 69 1.0 8.0 0.00 0.12 0.00 88 1009.3
20260506081558 61 75 1.0 7.0 0.00 0.12 0.00 92 1009.4
20260506073057 59 360 1.0 5.0 0.00 0.17 0.00 95 1009.6
20260506071559 59 360 1.0 9.0 0.00 0.17 0.00 96 1009.5
20260506061556 59 360 1.0 4.0 0.00 0.19 0.00 97 1010.1
20260506050104 58 360 2.0 6.0 0.00 0.20 0.00 96 1010.5
20260506044557 57 0 0.0 2.0 0.00 0.20 0.00 96 1010.7